Location: Unspecified
(51.3762°N, 0.0000°E)
Time: 08:19:30
(UTC+00:00)

O/OREOS (USA 219) - Pass Details

Date: 29 July 2019
Orbit: 621 x 646 km, 72.0° (Epoch: 22 May)

Event Time Altitude Azimuth Distance (km) Brightness Sun altitude
Exits shadow 01:27:11 10° 137° (SE) 2,046 ? -17.6°
Reaches altitude 10° 01:27:16 10° 136° (SE) 2,027 ? -17.6°
Maximum altitude 01:29:57 16° 100° (E) 1,684 ? -17.4°
Drops below altitude 10° 01:32:38 10° 63° (ENE) 2,028 ? -17.3°
Sets 01:35:41 0° 42° (NE) 2,937 ? -17.1°
